Terminal Aerodrome Forecast
Issued by NWS Salt Lake City, UT

Home | Current Version | Previous Version | Text Only | Print | Product List | Glossary On
Versions: 1 2 3 4 5 6 7 8 9 10 11 12 13 14 15 16 17 18 19 20 21 22 23 24 25 26
000
FTUS45 KSLC 242336
TAFCDC
TAF
KCDC 242336Z 2500/2524 19010G20KT P6SM FEW090 SCT120
     FM250200 16006KT P6SM FEW130
     FM251800 21014G22KT P6SM SCT080 BKN120=

USA.gov is the U.S. government's official web portal to all federal, state and local government web resources and services.